TimeEDT,TemperatureF,Dew PointF,Humidity,Sea Level PressureIn,VisibilityMPH,Wind Direction,Wind SpeedMPH,Gust SpeedMPH,PrecipitationIn,Events,Conditions,WindDirDegrees,DateUTC
12:00 AM,45.1,42.3,90,30.30,-9999.0,Calm,Calm,-,N/A,,Unknown,0,2013-05-01 04:00:00
1:00 AM,44.1,42.1,93,30.32,-9999.0,Calm,Calm,-,N/A,,Unknown,0,2013-05-01 05:00:00
2:00 AM,45,42,86,30.33,,Calm,Calm,,,,,,2013-05-01 06:00:00
2:00 AM,44.6,42.1,91,30.33,-9999.0,Calm,Calm,-,N/A,,Unknown,0,2013-05-01 06:00:00
3:00 AM,46.6,43.9,90,30.35,-9999.0,Calm,Calm,-,N/A,,Unknown,0,2013-05-01 07:00:00
4:00 AM,44.4,41.7,90,30.36,-9999.0,Calm,Calm,-,N/A,,Unknown,0,2013-05-01 08:00:00
5:00 AM,45.3,42.1,88,30.37,-9999.0,Calm,Calm,-,N/A,,Unknown,0,2013-05-01 09:00:00
7:00 AM,46.9,43.7,88,30.40,-9999.0,Calm,Calm,-,N/A,,Unknown,0,2013-05-01 11:00:00
8:00 AM,49,44,78,30.42,,Calm,Calm,,,,,,2013-05-01 12:00:00
8:00 AM,48.7,44.2,84,30.42,-9999.0,Calm,Calm,-,N/A,,Unknown,0,2013-05-01 12:00:00
9:00 AM,57.0,45.9,66,30.42,-9999.0,South,4.6,-,N/A,,Unknown,190,2013-05-01 13:00:00
10:00 AM,63.7,44.8,50,30.42,-9999.0,South,5.8,-,N/A,,Unknown,180,2013-05-01 14:00:00
11:00 AM,69.4,45.0,41,30.40,-9999.0,South,6.9,-,N/A,,Unknown,180,2013-05-01 15:00:00
12:00 PM,73.8,45.5,36,30.38,-9999.0,South,9.2,-,N/A,,Unknown,180,2013-05-01 16:00:00
1:00 PM,74.5,42.6,32,30.36,-9999.0,South,10.4,18.4,N/A,,Unknown,180,2013-05-01 17:00:00
2:00 PM,76,42,20,30.35,,South,9.2,,,,,180,2013-05-01 18:00:00
2:00 PM,76.3,42.4,30,30.35,-9999.0,South,9.2,-,N/A,,Unknown,180,2013-05-01 18:00:00
3:00 PM,78.6,42.6,28,30.34,-9999.0,South,9.2,-,N/A,,Unknown,190,2013-05-01 19:00:00
4:00 PM,78.1,41.5,27,30.35,-9999.0,South,9.2,-,N/A,,Unknown,170,2013-05-01 20:00:00
5:00 PM,77.9,41.4,27,30.35,-9999.0,South,8.1,-,N/A,,Unknown,190,2013-05-01 21:00:00
7:00 PM,74.7,41.4,30,30.36,-9999.0,South,9.2,-,N/A,,Unknown,170,2013-05-01 23:00:00
8:00 PM,67,42,29,30.37,,SSE,3.5,,,,,160,2013-05-02 00:00:00
8:00 PM,67.1,41.9,40,30.37,-9999.0,SSE,3.5,-,N/A,,Unknown,160,2013-05-02 00:00:00
9:00 PM,61.3,43.0,51,30.39,-9999.0,SSE,3.5,-,N/A,,Unknown,150,2013-05-02 01:00:00
10:00 PM,58.5,43.7,58,30.39,-9999.0,SSE,2.3,-,N/A,,Unknown,150,2013-05-02 02:00:00
11:00 PM,54.0,43.5,68,30.39,-9999.0,SSE,1.2,-,N/A,,Unknown,150,2013-05-02 03:00:00